Regional Weather Roundup
Issued by NWS

Home | Current Version | Previous Version | Text Only | Print | Product List | Glossary On
Versions: 1 2 3 4 5 6 7 8 9 10 11 12 13 14 15 16 17 18 19 20 21 22 23 24 25 26 27 28 29 30 31 32 33 34 35 36 37 38 39 40 41 42 43 44 45 46 47 48 49 50
000
ASUS43 KMPX 081101
RWRMN
WEATHER ROUNDUP FOR MINNESOTA
NATIONAL WEATHER SERVICE TWIN CITIES/CHANHASSEN MN
500 AM CST MON FEB 08 2016


NOTE: "FAIR" INDICATES FEW OR NO CLOUDS BELOW 12,000 FEET WITH NO
SIGNIFICANT WEATHER AND/OR OBSTRUCTIONS TO VISIBILITY. N/A MEANS
CURRENT SKY AND/OR WEATHER CONDITIONS ARE NOT AVAILABLE.

MNZ060>063-068>070-081200-
   Twin Cities Metro

CITY           SKY/WX    TMP DP  RH WIND       PRES   REMARKS
TWIN CITIES    FLURRIES  14   6  70 NW21G26   29.83R WCI  -4
ST PAUL        MIX PCPN  14   6  70 NW24      29.83R WCI  -5
CRYSTAL        CLOUDY    14   5  67 NW18      29.83R WCI  -3
BLAINE         CLOUDY    16   7  67 NW18G24   29.82R WCI  -1
LAKEVILLE      CLOUDY    12   9  85 NW16G22   29.80R WCI  -4
EDEN PRAIRIE   CLOUDY    14   5  67 NW18G31   29.82R WCI  -3
SOUTH ST PAUL  CLOUDY    16   7  68 NW17G30   29.81R WCI   0
LAKE ELMO      CLOUDY    16  10  79 NW16      29.80R WCI   0
$$
MNZ001>005-007-008-013>017-022>024-027-028-081200-
   Northwest Minnesota

CITY           SKY/WX    TMP DP  RH WIND       PRES   REMARKS
BEMIDJI        FLURRIES   4  -1  79 NW17G25   29.94R WCI -16
HALLOCK        CLOUDY    10   7  85 N25G35    30.11R FOG     WCI -10
ROSEAU         FLURRIES   7   0  72 N20       30.03R WCI -13
WARROAD        MOCLDY     3  -2  78 NW20      30.01R WCI -18
CROOKSTON      LGT SNOW  10   7  85 N24       30.10R WCI -10
FOSSTON        LGT SNOW   3   0  85 N24G32    30.02R WCI -20
DETROIT LAKES  LGT SNOW   9   5  85 N30G45    29.99R WCI -14
MOORHEAD       CLOUDY    10   9  92 N28       30.09R WCI -11
PARK RAPIDS    LGT SNOW   6  -1  73 N21G28    29.92R WCI -14
MAHNOMEN       LGT SNOW   7   2  82 N26G32    30.00R WCI -16
$$
MNZ006-009>011-018-025>026-081200-
   North Central Minnesota

CITY           SKY/WX    TMP DP  RH WIND       PRES   REMARKS
BAUDETTE       LGT SNOW   3  -3  76 NW20      29.95R WCI -18
FLAG ISLAND    CLOUDY     1  -2  85 NW22      29.98R WCI -21
INTL FALLS     LGT SNOW   7   1  76 NW15      29.89R WCI -10
WASKISH        FLURRIES   3   0  85 NW13G20   29.95R WCI -14
LONGVILLE      CLOUDY     3   0  85 NW8G18    29.89S WCI -10
GRAND RAPIDS   CLOUDY     5  -2  72 NW20G26   29.84R WCI -15
CRANE LAKE     CLOUDY     9   5  85 NW12      29.84R WCI  -6
ORR            LGT SNOW   7   1  78 NW10G17   29.81R WCI  -8
COOK           LGT SNOW   7   3  85 NW9G18    29.82R WCI  -7
WALKER         FLURRIES   4  -2  75 NW16G25   29.91R WCI -15
$$
MNZ012-019>021-037-081200-
   Northeast Minnesota

CITY           SKY/WX    TMP DP  RH WIND       PRES   REMARKS
DULUTH         LGT SNOW  10   4  76 NW13G28   29.74R BLWGSNOWWCI  -5
ELY            LGT SNOW  10   7  85 N6        29.76R WCI   1
HIBBING        LGT SNOW   5   1  83 NW21      29.81R FOG     WCI -16
EVELETH        FLURRIES  10   5  79 NW12G21   29.80R WCI  -4
DULUTH HARBOR  LGT SNOW  16   9  73 NW16      29.80R WCI   0
TWO HARBORS    LGT SNOW  16   9  73 NW9G18    29.69R WCI   4
SILVER BAY     CLOUDY    16   7  67 NW14G21   29.69R WCI   1
GRAND MARAIS     N/A     13   5  70 SE7       29.71R WCI   3
G MARAIS ARPRT LGT SNOW   3   0  85 NW14      29.63R WCI -15
$$
MNZ029>031-032-039>041-046>048-054>057-064-081200-
   West Central Minnesota

CITY           SKY/WX    TMP DP  RH WIND       PRES   REMARKS
FERGUS FALLS   LGT SNOW  10   7  85 N29G48    30.04R WCI -11
WHEATON        CLOUDY    16  12  86 NW25G35   30.07R WCI  -3
MORRIS         SNOW      12   9  85 N31G40    29.98R VSB 1/2 WCI -10
ALEXANDRIA     LGT SNOW   8   2  76 N24G35    29.93R WCI -13
ELBOW LAKE     FLURRIES  10   5  80 NW28G36   29.99R WCI -11
WADENA         LGT SNOW   7   1  78 NW17G25   29.93R WCI -12
GLENWOOD       LGT SNOW   9   3  78 NW25G32   29.93R WCI -13
APPLETON       HVY SNOW  16  12  86 N39G46    30.00R VSB<1/4 WCI  -7
BENSON         LGT SNOW  12   7  79 N24G39    29.97R WCI  -8
ORTONVILLE     LGT SNOW  16  10  79 NW24G33   30.02R WCI  -3
MADISON        SNOW      18  12  79 N26G36    30.02R VSB 1/2 WCI  -1
WILLMAR        LGT SNOW  12   9  85 N24G38    29.93S WCI  -8
$$
MNZ033>034-036-042>043-049>051-058-059-081200-
   Central Minnesota

CITY           SKY/WX    TMP DP  RH WIND       PRES   REMARKS
ST CLOUD       LGT SNOW   9   4  80 NW17G26   29.87R WCI  -9
SAUK CENTRE    LGT SNOW   8   3  81 NW18G26   29.91R WCI -11
PAYNESVILLE    LGT SNOW   9   4  80 NW24G30   29.91R WCI -12
AITKIN         FLURRIES   9   0  66 NW14G22   29.85R WCI  -8
PINE RIVER     CLOUDY     7   0  72 NW17G25   29.93R WCI -12
BRAINERD       LGT SNOW   6   1  80 NW18G28   29.88R WCI -13
STAPLES        LGT SNOW   5   0  78 NW13G22   29.91R WCI -12
LONG PRAIRIE   CLOUDY     9   1  72 NW17G25   29.90R HAZE    WCI -10
LITTLE FALLS   FLURRIES   9   1  72 NW10G20   29.90R WCI  -6
LITCHFIELD     CLOUDY    10   7  85 NW20G28   29.89R HAZE    WCI  -8
BUFFALO        CLOUDY    12   4  72 NW18G24   29.87R WCI  -6
MAPLE LAKE     FLURRIES  12   6  77 NW16G25   29.88R WCI  -5
$$
MNZ037-044-045-052-053-081200-
   East Central Minnesota

CITY           SKY/WX    TMP DP  RH WIND       PRES   REMARKS
PRINCETON      FLURRIES  12   5  73 NW15G21   29.85R WCI  -4
MORA           CLOUDY    12   5  73 NW18G30   29.84R WCI  -5
CAMBRIDGE      FLURRIES  14   3  62 NW17G23   29.82R WCI  -3
RUSH CITY      CLOUDY    12   6  74 NW12G18   29.82R WCI  -2
MOOSE LAKE     CLOUDY    12   3  67 NW13G21   29.79R WCI  -3
HINCKLEY       CLOUDY    12   5  73 NW14      29.81R WCI  -3
CLOQUET        FLURRIES  10   3  72 NW13G23   29.77R WCI  -5
MCGREGOR       CLOUDY     9   3  78 NW16G25   29.84R WCI  -9
$$
MNZ071>073-080-081-089-090-097-098-081200-
   Southwest Minnesota

CITY           SKY/WX    TMP DP  RH WIND       PRES   REMARKS
MONTEVIDEO     LGT SNOW  14  12  92 N23G32    29.99R WCI  -5
GRANITE FALLS  LGT SNOW  16  12  86 NW24G33   29.98S VSB 1   WCI  -3
CANBY          LGT SNOW  19  16  87 NW21G26   30.02R WCI   3
MARSHALL       SNOW      15  11  83 N30G43    29.96S VSB 1/2 WCI  -5
REDWOOD FALLS  LGT SNOW  13   8  81 N20G33    29.94R WCI  -5
OLIVIA         LGT SNOW  16  10  79 NW24G33   29.93R WCI  -3
PIPESTONE      CLOUDY    18  10  73 N28G39    29.96R WCI  -1
WINDOM         HVY SNOW  12  10  92 NW39G52   29.89R VSB 1/4 WCI -12
WORTHINGTON    CLOUDY    16  10  79 NW26G35   29.93S WCI  -3
JACKSON          N/A     14  10  85 NW43G58   29.87F WCI -10
TRACY          SNOW      15  13  90 N31G44    29.96R VSB 1/2 WCI  -5
SLAYTON        LGT SNOW  14  13  95 N22G32    29.94R VSB 3/4 WCI  -4
$$
MNZ065>067-074>077-082>085-091>093-081200-
   South Central Minnesota

CITY           SKY/WX    TMP DP  RH WIND       PRES   REMARKS
MANKATO        CLOUDY   N/A N/A N/A NW24G36   29.84R VSB 1
NEW ULM        LGT SNOW  12   9  85 NW26G35   29.86R WCI  -8
ST JAMES       HVY SNOW  12  10  92 NW31G43   29.90R VSB 1/4 WCI -10
FAIRMONT       CLOUDY   N/A N/A N/A NW30G43   29.84S VSB 3/4
GLENCOE        CLOUDY    13   8  80 NW18G29   29.86R WCI  -5
FARIBAULT      LGT SNOW  12   9  85 NW15G23   29.81R WCI  -4
OWATONNA       LGT SNOW  12   9  85 NW22      29.80R WCI  -7
WASECA         LGT SNOW  12   9  85 NW21G29   29.83R WCI  -6
ALBERT LEA     LGT SNOW  12   9  85 NW17G24   29.79R WCI  -5
$$
MNZ078>079-086>088-094>096-081200-
   Southeast Minnesota

CITY           SKY/WX    TMP DP  RH WIND       PRES   REMARKS
ROCHESTER      LGT SNOW  13   9  84 NW22      29.73R FOG     WCI  -6
RED WING       FLURRIES  18   9  68 NW12G21   29.78R WCI   5
STANTON        FLURRIES  16  10  77 NW15G22   29.79R WCI   1
DODGE CENTER   LGT SNOW  12   9  85 NW20G26   29.75R WCI  -6
WINONA         CLOUDY    19  14  79 NW17      29.75R WCI   4
AUSTIN         LGT SNOW  12   9  85 NW18G29   29.76R WCI  -5
PRESTON        FLURRIES  13   8  81 NW17G23   29.72R WCI  -4
$$
ABBREVIATIONS USED IN REMARKS
   TC - TEMPERATURES IN CELSIUS
  WCI - WIND CHILL INDEX
   HX - HEAT INDEX
  VSB - VISIBILITY
$$



USA.gov is the U.S. government's official web portal to all federal, state and local government web resources and services.